Time,TemperatureF,DewpointF,PressureIn,WindDirection,WindDirectionDegrees,WindSpeedMPH,WindSpeedGustMPH,Humidity,HourlyPrecipIn,Conditions,Clouds,dailyrainin,SoftwareType,DateUTC
2013-04-16 00:00:00,58.1,53.9,30.06,SE,140,0.0,3.0,86,0.00,SCT,,0.00,WeatherDisplay:10.37,2013-04-16 04:00:00,
2013-04-16 01:00:00,55.1,52.5,30.06,SSW,196,0.0,3.0,91,0.00,CLR,,0.00,WeatherDisplay:10.37,2013-04-16 05:00:00,
2013-04-16 02:00:00,53.1,51.1,30.07,SSW,207,0.0,3.0,93,0.00,CLR,,0.00,WeatherDisplay:10.37,2013-04-16 06:00:00,
2013-04-16 03:00:00,52.2,50.5,30.07,North,2,0.0,4.0,94,0.00,CLR,,0.00,WeatherDisplay:10.37,2013-04-16 07:00:00,
2013-04-16 04:00:00,51.4,49.7,30.08,North,3,0.0,0.0,94,0.00,CLR,,0.00,WeatherDisplay:10.37,2013-04-16 08:00:00,
2013-04-16 05:00:00,50.5,48.9,30.08,North,1,0.0,0.0,94,0.00,SCT,,0.00,WeatherDisplay:10.37,2013-04-16 09:00:00,
2013-04-16 06:00:00,49.3,47.7,30.10,North,3,0.0,0.0,94,0.00,CLR,,0.00,WeatherDisplay:10.37,2013-04-16 10:00:00,
2013-04-16 07:00:00,49.0,47.4,30.12,North,1,0.0,0.0,94,0.00,OVC,,0.00,WeatherDisplay:10.37,2013-04-16 11:00:00,
2013-04-16 08:00:00,50.5,48.8,30.14,North,1,0.0,0.0,94,0.00,OVC,,0.00,WeatherDisplay:10.37,2013-04-16 12:00:00,
2013-04-16 09:00:00,51.1,49.5,30.15,North,1,0.0,0.0,94,0.00,OVC,,0.00,WeatherDisplay:10.37,2013-04-16 13:00:00,
2013-04-16 10:00:00,51.4,49.8,30.16,North,1,0.0,0.0,94,0.00,OVC,,0.00,WeatherDisplay:10.37,2013-04-16 14:00:00,
2013-04-16 11:00:00,51.5,49.9,30.16,North,1,0.0,0.0,94,0.00,OVC,,0.00,WeatherDisplay:10.37,2013-04-16 15:00:00,
2013-04-16 12:00:00,51.6,49.9,30.15,North,1,0.0,0.0,94,0.00,OVC,,0.00,WeatherDisplay:10.37,2013-04-16 16:00:00,
2013-04-16 13:00:00,76.3,62.4,30.13,South,178,1.0,7.0,62,0.00,CLR,,0.00,WeatherDisplay:10.37,2013-04-16 17:00:00,
2013-04-16 14:00:00,77.5,60.0,30.10,SE,145,3.0,12.0,55,0.00,SCT,,0.00,WeatherDisplay:10.37,2013-04-16 18:00:00,
2013-04-16 15:00:00,78.2,60.7,30.08,East,82,1.0,12.0,55,0.00,CLR,,0.00,WeatherDisplay:10.37,2013-04-16 19:00:00,
2013-04-16 16:00:00,79.5,60.4,30.06,SSE,153,3.0,17.0,52,0.00,SCT,,0.00,WeatherDisplay:10.37,2013-04-16 20:00:00,
2013-04-16 17:00:00,80.3,59.9,30.03,SSE,162,6.0,12.0,50,0.00,CLR,,0.00,WeatherDisplay:10.37,2013-04-16 21:00:00,
2013-04-16 18:00:00,79.9,57.8,30.03,SSE,162,7.0,12.0,47,0.00,CLR,,0.00,WeatherDisplay:10.37,2013-04-16 22:00:00,
2013-04-16 19:00:00,77.1,60.7,30.05,South,179,2.0,13.0,57,0.00,SCT,,0.00,WeatherDisplay:10.37,2013-04-16 23:00:00,
2013-04-16 20:00:00,74.8,60.9,30.06,SSW,199,0.0,7.0,62,0.00,OVC,,0.00,WeatherDisplay:10.37,2013-04-17 00:00:00,
2013-04-16 21:00:00,73.1,61.1,30.08,South,176,0.0,6.0,66,0.00,OVC,,0.00,WeatherDisplay:10.37,2013-04-17 01:00:00,
2013-04-16 22:00:00,69.3,61.0,30.10,South,179,0.0,4.0,75,0.00,SCT,,0.00,WeatherDisplay:10.37,2013-04-17 02:00:00,
2013-04-16 23:00:00,65.4,59.4,30.11,South,179,0.0,1.0,81,0.00,CLR,,0.00,WeatherDisplay:10.37,2013-04-17 03:00:00,